CW2285 Weather Reports


time (UTC)temp
C
wind
direction
speed
KPH
gust
KPH
rain 1hr
cm
rain 24hr
cm
rain mn
cm
humidity
%
barometer
mb
20260506015504 21 292 25.7 38.6 0.00 0.00 0.00 39 1008.1
20260506015003 21 296 22.5 41.8 0.00 0.00 0.00 39 1008.0
20260506014503 22 298 19.3 38.6 0.00 0.00 0.00 38 1007.9
20260506014004 22 279 24.1 37.0 0.00 0.00 0.00 37 1007.8
20260506013503 22 299 19.3 41.8 0.00 0.00 0.00 37 1007.8
20260506013003 22 292 22.5 37.0 0.00 0.00 0.00 36 1007.8
20260506012504 22 298 25.7 48.3 0.00 0.00 0.00 35 1007.8
20260506012004 22 297 16.1 32.2 0.00 0.00 0.00 35 1007.8
20260506011503 22 284 29.0 46.7 0.00 0.00 0.00 35 1007.8
20260506011004 23 305 22.5 40.2 0.00 0.00 0.00 34 1007.8
20260506010503 23 291 22.5 41.8 0.00 0.00 0.00 34 1007.8
20260506010003 23 294 20.9 40.2 0.00 0.00 0.00 34 1007.7
20260506005503 23 295 20.9 40.2 0.00 0.00 0.00 33 1007.8
20260506005003 23 303 24.1 40.2 0.00 0.00 0.00 32 1007.8
20260506004504 23 278 27.4 38.6 0.00 0.00 0.00 32 1007.7
20260506004004 23 287 27.4 45.1 0.00 0.00 0.00 32 1007.7
20260506003003 23 280 19.3 35.4 0.00 0.00 0.00 31 1007.7
20260506002503 23 289 25.7 40.2 0.00 0.00 0.00 31 1007.7
20260506002003 24 281 25.7 40.2 0.00 0.00 0.00 30 1007.7
20260506001504 24 289 17.7 35.4 0.00 0.00 0.00 30 1007.7
20260506001003 24 286 25.7 41.8 0.00 0.00 0.00 30 1007.7
20260506000004 25 285 22.5 40.2 0.00 0.00 0.00 28 1007.7
20260505235504 25 295 20.9 35.4 0.00 0.00 0.00 27 1007.7
20260505235004 25 291 14.5 35.4 0.00 0.00 0.00 27 1007.7
20260505234503 25 284 16.1 27.4 0.00 0.00 0.00 24 1007.7
20260505234004 25 282 19.3 32.2 0.00 0.00 0.00 26 1007.7
20260505233503 25 284 19.3 32.2 0.00 0.00 0.00 25 1007.7
20260505233004 25 284 22.5 37.0 0.00 0.00 0.00 25 1007.7
20260505232503 25 277 19.3 35.4 0.00 0.00 0.00 26 1007.7
20260505232004 25 286 16.1 33.8 0.00 0.00 0.00 25 1007.7
20260505231003 25 285 19.3 33.8 0.00 0.00 0.00 26 1007.8
20260505230504 25 283 19.3 32.2 0.00 0.00 0.00 25 1007.8
20260505225503 25 280 19.3 32.2 0.00 0.00 0.00 26 1007.8
20260505224503 25 287 19.3 33.8 0.00 0.00 0.00 25 1008.0
20260505224003 25 320 14.5 29.0 0.00 0.00 0.00 26 1008.1
20260505223504 25 282 12.9 22.5 0.00 0.00 0.00 25 1008.1
20260505223003 25 282 14.5 32.2 0.00 0.00 0.00 26 1008.2
20260505222504 25 295 16.1 35.4 0.00 0.00 0.00 26 1008.3
20260505222003 25 298 8.0 27.4 0.00 0.00 0.00 26 1008.3
20260505221503 26 293 9.7 27.4 0.00 0.00 0.00 26 1008.3
20260505221003 26 290 14.5 32.2 0.00 0.00 0.00 26 1008.3
20260505220504 26 290 16.1 25.7 0.00 0.00 0.00 25 1008.6
20260505215004 26 311 12.9 27.4 0.00 0.00 0.00 26 1008.7
20260505214503 26 294 16.1 33.8 0.00 0.00 0.00 25 1008.7
20260505214004 25 299 16.1 35.4 0.00 0.00 0.00 26 1008.8
20260505212503 25 318 11.3 24.1 0.00 0.00 0.00 26 1008.9
20260505212003 25 273 11.3 32.2 0.00 0.00 0.00 26 1008.9
20260505211503 26 313 9.7 19.3 0.00 0.00 0.00 26 1009.1
20260505211004 26 322 14.5 29.0 0.00 0.00 0.00 26 1009.1
20260505210504 26 310 14.5 24.1 0.00 0.00 0.00 27 1009.3
20260505210004 25 324 4.8 19.3 0.00 0.00 0.00 30 1009.3
20260505205003 25 303 11.3 32.2 0.00 0.00 0.00 29 1009.3
20260505204504 25 285 8.0 25.7 0.00 0.00 0.00 31 1009.3
20260505204004 25 256 9.7 20.9 0.00 0.00 0.00 30 1009.4
20260505203503 25 286 11.3 24.1 0.00 0.00 0.00 29 1009.4
20260505202503 25 294 14.5 25.7 0.00 0.00 0.00 29 1009.4
20260505202003 25 308 9.7 24.1 0.00 0.00 0.00 31 1009.4
20260505201504 25 303 12.9 27.4 0.00 0.00 0.00 30 1009.4
20260505200503 25 281 11.3 25.7 0.00 0.00 0.00 31 1009.5
20260505200004 25 343 4.8 22.5 0.00 0.00 0.00 31 1009.6
20260505195503 25 298 9.7 29.0 0.00 0.00 0.00 31 1009.6
20260505194503 24 286 12.9 24.1 0.00 0.00 0.00 33 1009.9
20260505194003 23 34 3.2 11.3 0.00 0.00 0.00 33 1009.9
20260505193503 23 327 3.2 11.3 0.00 0.00 0.00 36 1010.0
20260505193003 23 231 6.4 19.3 0.00 0.00 0.00 32 1010.0
20260505192504 24 271 8.0 16.1 0.00 0.00 0.00 35 1009.9
20260505192004 23 300 3.2 9.7 0.00 0.00 0.00 34 1010.1
20260505191503 24 320 8.0 19.3 0.00 0.00 0.00 35 1010.2
20260505190504 23 313 4.8 9.7 0.00 0.00 0.00 36 1010.2
20260505190004 23 283 8.0 14.5 0.00 0.00 0.00 35 1010.3
20260505185504 23 263 8.0 19.3 0.00 0.00 0.00 35 1010.3
20260505185004 23 284 9.7 20.9 0.00 0.00 0.00 35 1010.2
20260505184504 23 335 3.2 12.9 0.00 0.00 0.00 37 1010.3
20260505184004 23 292 4.8 16.1 0.00 0.00 0.00 36 1010.3
20260505183503 23 286 8.0 20.9 0.00 0.00 0.00 36 1010.2
20260505183004 23 309 6.4 12.9 0.00 0.00 0.00 37 1010.3
20260505182504 22 295 11.3 19.3 0.00 0.00 0.00 37 1010.3
20260505182003 22 287 6.4 14.5 0.00 0.00 0.00 37 1010.4
20260505181504 22 261 8.0 14.5 0.00 0.00 0.00 38 1010.3
20260505181003 22 272 4.8 4.8 0.00 0.00 0.00 39 1010.3
20260505180503 22 313 8.0 14.5 0.00 0.00 0.00 38 1010.4
20260505180003 22 299 3.2 11.3 0.00 0.00 0.00 37 1010.4
20260505175503 22 28 3.2 9.7 0.00 0.00 0.00 39 1010.4
20260505175003 22 277 4.8 9.7 0.00 0.00 0.00 39 1010.3
20260505174003 22 275 8.0 12.9 0.00 0.00 0.00 38 1010.2
20260505173503 22 298 4.8 9.7 0.00 0.00 0.00 40 1010.1
20260505173003 22 327 4.8 12.9 0.00 0.00 0.00 40 1010.1
20260505172503 22 301 9.7 19.3 0.00 0.00 0.00 40 1010.0
20260505172003 22 290 8.0 20.9 0.00 0.00 0.00 40 1010.0
20260505171503 22 252 9.7 24.1 0.00 0.00 0.00 40 1010.0
20260505171003 22 297 9.7 19.3 0.00 0.00 0.00 40 1010.1
20260505170503 22 312 4.8 16.1 0.00 0.00 0.00 41 1010.0
20260505170004 21 282 9.7 20.9 0.00 0.00 0.00 41 1010.0
20260505165503 21 332 4.8 11.3 0.00 0.00 0.00 42 1010.0
20260505165004 21 273 8.0 14.5 0.00 0.00 0.00 42 1010.1
20260505164503 21 284 8.0 19.3 0.00 0.00 0.00 43 1010.0
20260505164003 21 294 9.7 19.3 0.00 0.00 0.00 43 1009.9
20260505163503 20 313 4.8 16.1 0.00 0.00 0.00 44 1009.9
20260505162503 20 298 6.4 16.1 0.00 0.00 0.00 45 1009.9
20260505162004 20 307 6.4 16.1 0.00 0.00 0.00 46 1009.9
20260505161503 19 274 11.3 20.9 0.00 0.00 0.00 47 1009.9
20260505161004 19 298 9.7 19.3 0.00 0.00 0.00 48 1009.8
20260505160504 20 292 9.7 19.3 0.00 0.00 0.00 47 1009.8
20260505153003 18 293 9.7 20.9 0.00 0.00 0.00 49 1009.4
20260505152504 18 283 9.7 20.9 0.00 0.00 0.00 50 1009.4
20260505152004 18 302 4.8 11.3 0.00 0.00 0.00 51 1009.5
20260505151504 18 274 8.0 19.3 0.00 0.00 0.00 51 1009.5
20260505151004 18 270 9.7 16.1 0.00 0.00 0.00 52 1009.5
20260505150503 18 280 8.0 22.5 0.00 0.00 0.00 53 1009.4
20260505125004 15 307 9.7 22.5 0.00 0.00 0.00 59 1008.6
20260505124503 15 301 11.3 22.5 0.00 0.00 0.00 59 1008.6
20260505124003 15 302 11.3 20.9 0.00 0.00 0.00 59 1008.5
20260505123504 15 313 9.7 20.9 0.00 0.00 0.00 59 1008.5
20260505123003 15 300 14.5 27.4 0.00 0.00 0.00 59 1008.6
20260505122503 15 311 14.5 27.4 0.00 0.00 0.00 59 1008.6
20260505122003 15 298 11.3 24.1 0.00 0.00 0.00 59 1008.5
20260505121504 15 297 11.3 22.5 0.00 0.00 0.00 59 1008.5
20260505121004 15 297 14.5 25.7 0.00 0.00 0.00 59 1008.6
20260505120503 15 305 11.3 25.7 0.00 0.00 0.00 58 1008.6
20260505120005 16 301 14.5 22.5 0.00 0.00 0.00 58 1008.7
20260505115004 16 293 11.3 22.5 0.00 0.00 0.00 57 1008.8
20260505114504 16 288 11.3 24.1 0.00 0.00 0.00 57 1008.8
20260505114004 16 288 17.7 27.4 0.00 0.00 0.00 56 1008.8
20260505113503 16 287 12.9 22.5 0.00 0.00 0.00 55 1008.8
20260505113003 16 290 8.0 19.3 0.00 0.00 0.00 55 1008.8
20260505112504 16 301 9.7 16.1 0.00 0.00 0.00 55 1008.7
20260505112003 16 299 9.7 20.9 0.00 0.00 0.00 56 1008.7
20260505111503 16 294 11.3 19.3 0.00 0.00 0.00 56 1008.7
20260505111003 15 329 6.4 14.5 0.00 0.00 0.00 58 1008.7
20260505110504 15 317 4.8 14.5 0.00 0.00 0.00 58 1008.7
20260505101504 16 302 6.4 14.5 0.00 0.00 0.00 55 1008.6
20260505100004 16 308 9.7 19.3 0.00 0.00 0.00 56 1008.7
20260505095503 16 310 9.7 20.9 0.00 0.00 0.00 56 1008.8
20260505095004 16 314 6.4 12.9 0.00 0.00 0.00 56 1008.6
20260505094504 16 320 8.0 16.1 0.00 0.00 0.00 56 1008.5
20260505094004 16 300 4.8 19.3 0.00 0.00 0.00 56 1008.6
20260505093504 16 315 8.0 20.9 0.00 0.00 0.00 57 1008.7
20260505093004 16 303 8.0 14.5 0.00 0.00 0.00 57 1008.8
20260505092504 16 309 8.0 19.3 0.00 0.00 0.00 57 1008.8
20260505092003 16 291 9.7 22.5 0.00 0.00 0.00 56 1008.8
20260505091504 16 307 9.7 19.3 0.00 0.00 0.00 56 1008.8
20260505091004 16 299 9.7 19.3 0.00 0.00 0.00 57 1008.8
20260505090504 16 296 11.3 24.1 0.00 0.00 0.00 56 1008.8
20260505090003 16 301 11.3 22.5 0.00 0.00 0.00 56 1008.8
20260505085504 16 308 9.7 19.3 0.00 0.00 0.00 56 1008.8
20260505085003 16 301 11.3 22.5 0.00 0.00 0.00 57 1008.8
20260505084504 16 294 9.7 20.9 0.00 0.00 0.00 58 1008.8
20260505084003 16 304 11.3 27.4 0.00 0.00 0.00 57 1008.9
20260505083504 16 309 11.3 22.5 0.00 0.00 0.00 56 1008.9
20260505083004 16 293 11.3 20.9 0.00 0.00 0.00 56 1008.8
20260505082504 16 297 9.7 19.3 0.00 0.00 0.00 56 1008.8
20260505082004 16 302 9.7 19.3 0.00 0.00 0.00 56 1008.9
20260505081504 16 325 12.9 27.4 0.00 0.00 0.00 55 1008.9
20260505081003 16 304 11.3 20.9 0.00 0.00 0.00 54 1008.8
20260505080504 16 306 11.3 27.4 0.00 0.00 0.00 54 1008.8
20260505080004 17 301 12.9 19.3 0.00 0.00 0.00 54 1008.9
20260505075504 17 298 8.0 19.3 0.00 0.00 0.00 53 1008.8
20260505075003 17 311 11.3 20.9 0.00 0.00 0.00 53 1008.8
20260505074504 17 300 11.3 27.4 0.00 0.00 0.00 53 1008.8
20260505074004 17 306 14.5 29.0 0.00 0.00 0.00 53 1008.8
20260505073504 17 292 12.9 22.5 0.00 0.00 0.00 52 1008.8
20260505072504 17 306 11.3 25.7 0.00 0.00 0.00 51 1008.8
20260505072004 17 305 11.3 22.5 0.00 0.00 0.00 51 1008.8
20260505071503 17 315 11.3 22.5 0.00 0.00 0.00 52 1008.8
20260505071003 17 310 8.0 24.1 0.00 0.00 0.00 52 1008.8
20260505070504 17 295 11.3 19.3 0.00 0.00 0.00 51 1008.8
20260505070003 17 304 9.7 22.5 0.00 0.00 0.00 50 1008.8
20260505065003 17 314 8.0 16.1 0.00 0.00 0.00 49 1008.8
20260505064003 18 308 8.0 19.3 0.00 0.00 0.00 48 1008.9
20260505063503 18 289 9.7 20.9 0.00 0.00 0.00 47 1008.9
20260505063003 18 280 11.3 20.9 0.00 0.00 0.00 46 1008.9
20260505062504 18 284 11.3 20.9 0.00 0.00 0.00 47 1008.9
20260505062004 18 303 14.5 27.4 0.00 0.00 0.00 46 1008.9
20260505061503 18 289 9.7 20.9 0.00 0.00 0.00 46 1008.9
20260505061004 18 297 9.7 20.9 0.00 0.00 0.00 45 1009.0
20260505060504 18 293 11.3 25.7 0.00 0.00 0.00 44 1009.0
20260505060003 18 282 8.0 20.9 0.00 0.00 0.00 44 1008.9
20260505055503 18 286 9.7 22.5 0.00 0.00 0.00 44 1008.9
20260505054504 18 285 9.7 19.3 0.00 0.00 0.00 44 1009.2
20260505054003 18 295 11.3 20.9 0.00 0.00 0.00 44 1009.1
20260505053003 18 269 9.7 19.3 0.00 0.00 0.00 44 1009.1
20260505052504 18 278 11.3 22.5 0.00 0.00 0.00 46 1009.3
20260505051502 18 286 8.0 19.3 0.00 0.00 0.00 44 1009.2
20260505051002 18 294 11.3 22.5 0.00 0.00 0.00 44 1009.2
20260505041502 19 289 11.3 29.0 0.00 0.00 0.00 45 1008.9
20260505041003 19 292 11.3 24.1 0.00 0.00 0.00 45 1009.0
20260505040503 19 295 14.5 27.4 0.00 0.00 0.00 45 1008.8
20260505040003 19 288 17.7 29.0 0.00 0.00 0.00 45 1008.8
20260505035502 19 275 14.5 33.8 0.00 0.00 0.00 45 1008.8
20260505034502 19 288 19.3 32.2 0.00 0.00 0.00 45 1008.7
20260505034003 19 303 14.5 32.2 0.00 0.00 0.00 45 1008.5
20260505033003 19 285 20.9 35.4 0.00 0.00 0.00 46 1008.4
20260505032002 19 287 16.1 32.2 0.00 0.00 0.00 46 1008.4
20260505031502 19 290 16.1 33.8 0.00 0.00 0.00 45 1008.3
20260505031002 20 285 16.1 37.0 0.00 0.00 0.00 46 1008.3
20260505030502 20 301 16.1 29.0 0.00 0.00 0.00 45 1008.2
20260505030002 20 286 20.9 45.1 0.00 0.00 0.00 43 1008.2
20260505025502 20 288 11.3 29.0 0.00 0.00 0.00 43 1008.2
20260505025002 20 285 20.9 35.4 0.00 0.00 0.00 43 1008.1
20260505024503 20 288 14.5 29.0 0.00 0.00 0.00 42 1008.1
20260505023502 20 299 19.3 33.8 0.00 0.00 0.00 41 1008.2
20260505022502 21 291 16.1 32.2 0.00 0.00 0.00 39 1008.1
20260505022002 21 293 16.1 24.1 0.00 0.00 0.00 38 1008.0
20260505021503 21 286 12.9 24.1 0.00 0.00 0.00 37 1007.9
20260505020502 21 282 14.5 25.7 0.00 0.00 0.00 37 1008.1
20260505020002 22 279 17.7 25.7 0.00 0.00 0.00 35 1008.2